Location: Lower Kingswood
(51.2667°N, 0.2167°W)
Time: 19:33:51
(UTC+00:00)

Cosmos 372 Rocket - Pass Details

Date: 26 September 2023
Orbit: 735 x 767 km, 74.1° (Epoch: 08 December)

Event Time Altitude Azimuth Distance (km) Brightness Sun altitude
Exits shadow 03:31:02 45° 197° (SSW) 1,004 4.3 -22.2°
Maximum altitude 03:32:39 84° 113° (ESE) 748 3.9 -21.9°
Drops below altitude 10° 03:37:46 10° 26° (NNE) 2,259 7.1 -21.2°
Sets 03:40:08 0° 26° (NNE) 3,189 8.0 -20.9°
